AirNav   Phillips 66 Aviation Fuel
 
 1018 users online  

83XS Ball Park Heliport
Houston, Texas, USA

GOING TO HOUSTON?


FAA INFORMATION EFFECTIVE 12 OCTOBER 2017

Location

FAA Identifier: 83XS
Lat/Long: 29-40-28.8350N / 095-37-05.8040W
29-40.480583N / 095-37.096733W
29.6746764 / -95.6182789
(estimated)
Elevation: 90 ft. / 27 m (estimated)
Variation: 06E (1985)
From city: 14 miles SW of HOUSTON, TX
Time zone: UTC -5 (UTC -6 during Standard Time)
Zip code: 77083

Heliport Operations

Heliport use: Private use. Permission required prior to landing
Activation date: 05/1979
Control tower: no
ARTCC: HOUSTON CENTER
FSS: MONTGOMERY COUNTY FLIGHT SERVICE STATION
FOR FP FILING CALL CXO FSS 1-800-833-5602.
Attendance: 0700-1700
Wind indicator: no
Segmented circle: no

Heliport Communications

WX ASOS at SGR (4 nm SW): 118.125 (281-242-7605)
WX AWOS-3 at AXH (13 nm SE): 123.625 (281-431-6572)
WX AWOS-3 at TME (17 nm NW): 119.525 (281-945-5451)
WX ASOS at HOU (18 nm E): PHONE 713-847-1462

Nearby radio navigation aids

VOR radial/distance  VOR name  Freq  Var
HUBr269/17.8HOBBY VOR/DME117.1005E
IAHr215/22.1HUMBLE VORTAC116.6005E
ELAr081/36.4EAGLE LAKE VOR/DME116.4008E

 
NDB name  Hdg/Dist  Freq  Var  ID
NIXIN223/28.432605EBVP -... ...- .--.
SANJAC266/28.634705EJPA .--- .--. .-
WHARTON042/37.624506EARM .- .-. --

Heliport Services

Runway Information

Helipad H1

Dimensions: 25 x 25 ft. / 8 x 8 m
LNDG & TKOFF 180' X 120'.
Surface: concrete
Traffic pattern: leftleft

Heliport Ownership and Management from official FAA records

Ownership: Privately-owned
Owner: PARK & SMYERS CONST INC
13301 OLD RICHMOND ROAD
HOUSTON, TX 77099
Phone 713-933-9870
Manager: PARK & SMYERS CONST INC
13301 OLD RICHMOND ROAD
HOUSTON, TX 77099
Phone 713-933-9870

Heliport Operational Statistics

Aircraft based on the field: 1
Helicopters: 1
    

Additional Remarks

A52-H1 PLINES 100' TO NORTH OF PAD.

Instrument Procedures

There are no published instrument procedures at 83XS.

Some nearby airports with instrument procedures:

KSGR - Sugar Land Regional Airport (4 nm SW)
KIWS - West Houston Airport (9 nm N)
KAXH - Houston Southwest Airport (13 nm SE)
KTME - Houston Executive Airport (17 nm NW)
KHOU - William P Hobby Airport (18 nm E)
 
Loc | Ops | Rwys | IFR | FBO | Links
Com | Nav | Svcs | Stats | Notes


 
Area around 83XS (Ball Park Heliport)
 
Road maps at: MapQuest Bing Google
 
Aerial photo
No photo
 
Sectional chart

 
Airport distance calculator
Flying to Ball Park Heliport? Find the distance to fly.

From to 83XS

Sunrise and sunset
Times for 22-Oct-2017
 Local
(UTC-5)
 Zulu
(UTC)
Morning civil twilight07:0612:06
Sunrise07:3012:30
Sunset18:4423:44
Evening civil twilight19:0800:08

Current date and time
Zulu (UTC)  22-Oct-2017 15:26:28
Local (UTC-5)  22-Oct-2017 10:26:28
 
METAR
KSGR 
4nm SW 
221512Z 07011G16KT 7SM RA BKN065 OVC100 18/16 A3012 RMK AO2 LTG DSNT NE-S P0002 T01780161
KAXH 
13nm SE 
221515Z AUTO 05010G14KT 10SM -TSRA SCT011 BKN044 OVC060 16/16 A3014 RMK AO2 LTG DSNT ALQS P0003 T01620157
KTME 
17nm NW 
221515Z AUTO 07011G17KT 1 3/4SM -RA BKN070 BKN080 17/16 A3014 RMK AO2
KHOU 
18nm E 
221453Z 05014G25KT 6SM -TSRA SCT009 BKN028CB BKN080 18/16 A3013 RMK AO2 PK WND 03029/1402 LTG DSNT ALQDS SLP206 OCNL LTGICCG VC SE-SW TS VC SE-SW MOV SE P0037 60047 T01830156 53048 $
TAF
KSGR 
4nm SW 
221403Z 2214/2312 02013G28KT 1SM +TSRA BR FEW008 BKN019CB OVC025 TEMPO 2215/2216 36014KT 6SM RA BKN020 OVC060 FM221600 34010G20KT P6SM BKN018 BKN150 FM221900 34015G25KT P6SM SCT180 FM230400 35007KT P6SM SKC
KHOU 
18nm E 
221402Z 2214/2312 01025G32KT 1 1/2SM +TSRA BKN013 BKN020CB OVC030 FM221445 36008G16KT 6SM -RA BR VCTS BKN025CB OVC070 TEMPO 2215/2216 5SM TSRA FM221700 34010G20KT P6SM SCT025 BKN150 FM221900 34015G25KT P6SM SCT180 FM230400 35010KT P6SM SKC
NOTAMs
Click for the latest NOTAMs
NOTAMs are issued by the DoD/FAA and will open in a separate window not controlled by AirNav.

 

 
 

Would you like to see your business listed on this page?

 If your business provides an interesting product or service to pilots, flight crews, aircraft, or users of the Ball Park Heliport, you should consider listing it here.  To start the listing process, click on the button below
 
Add a business
 

Other Pages about Ball Park Heliport

Update a link
 
Copyright © AirNav, LLC. All rights reserved. Privacy Policy  Contact